View from above orbital plane
|
View from above satellite
|
Ground track
|
The orbit data is extracted from the following two-line orbital elements,
1 36416U 10009D 21112.41301930 -.00000036 00000-0 33027-4 0 9997
2 36416 63.4197 90.0872 0525441 355.5431 4.1020 13.69591477556651
Epoch (UTC): | 22 April 2021 09:54:44 |
Eccentricity: | 0.0525441 |
inclination: | 63.4197° |
perigee height: | 613 km |
apogee height: | 1389 km |
right ascension of ascending node: | 90.0872° |
argument of perigee: | 355.5431° |
revolutions per day: | 13.69591477 |
mean anomaly at epoch: | 4.1020° |
orbit number at epoch: | 55665 |
The dashed part of the orbit path shows where the satellite is in the earth's shadow,
|
|